Voltar ao catálogo

FORMOSAT7-4/COSMIC2-4

AtivoMeteoVLEO
NORAD 44350·PAYLOAD·🇹🇼 Taiwan

Lançado Jun 25, 2019 de Cape Canaveral Space Force Station

Loading…

Próximas Passagens (próximas 24 horas)

TLE

AtualizadoSource: Space-Track

Época: Sep 14, 2026, 04:59 UTC

1 44350U 19036M   26257.20772455  .00002080  00000-0  15140-3 0  9993
2 44350  23.9970 214.2007 0001352 142.9082 217.1513 14.96816063397420

Acompanhe FORMOSAT7-4/COSMIC2-4 em tempo real com AllMySat

Download on the App Store